Flag for Palestinian Territories Weather past 2 weeks in Hebron, West Bank, Palestinian Territories

59 °F

Passing clouds.

Feels Like: 58 °F
Forecast: 46 / 50 °F
Wind: 8 mph from Southeast

Location: Ben Gurion International Airport

Current Time: Dec 2, 2015 at 2:16:25 AM

Latest Report: Dec 2, 2015 at 1:20 AM

Visibility: N/A

Pressure: 30.12 "Hg (27.09 "Hg at 894m altitude)

Humidity: 82%

Dew point: 54 °F

Location of HebronLocation

Historic Weather in Hebron — Graph


Hebron temperature yesterday

Maximum temperature yesterday: 70 °F (at 11:50 AM)
Minimum temperature yesterday: 59 °F (at 12:50 AM)
Average temperature yesterday: 63 °F

Past Weeks' High & Low Weather Summary

High81 °F (Nov 26, 11:20 AM)94% (Nov 17, 10:20 AM)30.18 "Hg (Nov 17, 10:20 AM)
Low55 °F (Nov 24, 6:20 AM)25% (Nov 25, 9:20 AM)29.80 "Hg (Nov 17, 12:20 AM)
Average67 °F62%30.03 "Hg
* Reported Nov 17 12:20 AM — Dec 2 12:50 AM, Hebron, Weather by CustomWeather, © 2015

Note: Actual official high and low records may vary slightly from our data, if they occured in-between our weather recording intervals... More about our weather records


Hebron weather history for previous 24 hours

Time TempWeatherWind HumidityBarometerVisibility
12:50 AM
Wed, Dec 2
59 °FLight rain. Passing clouds.8 mph82%30.12 "HgN/A
12:20 AM59 °FPassing clouds.3 mph82%30.12 "HgN/A
11:50 PM
Tue, Dec 1
61 °FLight rain. Passing clouds.2 mph77%30.12 "HgN/A
11:20 PM61 °FPassing clouds.8 mph77%30.12 "HgN/A
10:50 PM61 °FPassing clouds.8 mph77%30.12 "HgN/A
10:20 PM59 °FPassing clouds.1 mph82%30.12 "HgN/A
9:50 PM59 °FPassing clouds.6 mph82%30.12 "HgN/A
9:20 PM59 °FPassing clouds.3 mph82%30.12 "HgN/A
8:50 PM61 °FPassing clouds.1 mph77%30.12 "HgN/A
8:20 PM61 °FPassing clouds.2 mph77%30.12 "HgN/A
7:50 PM61 °FPassing clouds.6 mph77%30.12 "HgN/A
7:20 PM61 °FPassing clouds.7 mph83%30.12 "HgN/A
6:50 PM61 °FPassing clouds.7 mph83%30.12 "HgN/A
6:20 PM61 °FPassing clouds.7 mph83%30.12 "HgN/A
5:50 PM63 °FPassing clouds.8 mph83%30.09 "HgN/A
5:20 PM63 °FPassing clouds.10 mph77%30.09 "HgN/A
4:50 PM66 °FPassing clouds.5 mph60%30.09 "HgN/A
4:20 PM66 °FPartly sunny.3 mph60%30.07 "HgN/A
3:50 PM66 °FPassing clouds.6 mph56%30.07 "HgN/A
3:20 PM68 °FScattered clouds.6 mph56%30.07 "HgN/A
2:50 PM68 °FScattered clouds.8 mph53%30.07 "HgN/A
2:20 PM68 °FScattered clouds.9 mph56%30.07 "HgN/A
1:50 PM68 °FScattered clouds.12 mph56%30.07 "HgN/A
1:20 PM68 °FScattered clouds.12 mph53%30.07 "HgN/A
12:50 PM70 °FScattered clouds.15 mph57%30.07 "HgN/A
12:20 PM68 °FScattered clouds.12 mph56%30.07 "HgN/A
11:50 AM70 °FPartly sunny.5 mph57%30.07 "HgN/A
11:20 AM68 °FLight rain. Partly sunny.5 mph64%30.07 "HgN/A
10:50 AM68 °FScattered clouds.7 mph69%30.09 "HgN/A
10:20 AM64 °FScattered clouds.9 mph78%30.09 "HgN/A
8:50 AM63 °FScattered clouds.6 mph83%30.09 "HgN/A
8:20 AM61 °FScattered clouds.7 mph88%30.09 "HgN/A
7:50 AM61 °FScattered clouds.7 mph88%30.09 "HgN/A
7:20 AM59 °FScattered clouds.7 mph94%30.07 "HgN/A
6:50 AM59 °FScattered clouds.7 mph94%30.07 "HgN/A
6:20 AM59 °FPassing clouds.5 mph94%30.07 "HgN/A
5:50 AM61 °FPassing clouds.6 mph88%30.04 "HgN/A
5:20 AM61 °FPassing clouds.7 mph88%30.04 "HgN/A
4:50 AM61 °FPassing clouds.6 mph88%30.04 "HgN/A
4:20 AM61 °FPassing clouds.6 mph88%30.01 "HgN/A
3:50 AM61 °FLight rain. Passing clouds.6 mph88%30.01 "HgN/A
3:20 AM61 °FPassing clouds.5 mph94%30.01 "HgN/A
2:50 AM61 °FPassing clouds.7 mph88%30.01 "HgN/A
Weather by CustomWeather, © 2015

See weather overviewHow to use our weather pages